Tracking 19854 objects as of 22-Sep-2019
HD Live streaming from Space Station
objects crossing your sky now

SL-12 R/B(2)

Track SL-12 R/B(2) now!


NORAD ID: 19754
Int'l Code: 1989-001F
Perigee: 19,078.3 km
Apogee: 19,144.8 km
Inclination: 64.2 °
Period: 674.7 minutes
Semi major axis: 25482 km
RCS: 1.4062 m2 (large)
Launch date: January 10, 1989
Source: Commonwealth of Independent States (former USSR) (CIS)
Launch site: TYURATAM MISSILE AND SPACE COMPLEX (TTMTR)

Note: This is a ROCKET BODY
aabbcc
Your satellite tracking list
Your tracking list is empty




NASA's NSSDC Master Catalog

Two Line Element Set (TLE):
1 19754U 89001F   19261.21907181 +.00000026 +00000-0 +00000-0 0  9990
2 19754 064.1597 155.6999 0013047 237.6232 301.4194 02.13421196239111
Source of the keplerian elements: AFSPC